Weather in Tavrovo-4

Russia / Belgorod Oblast     50°29′56″N   36°35′49″E
temp.,
°C
wind,
m/s
gust,
m/s
humid.,
%
clouds,
%
prec.,
mm/h
press.,
hPa
HPBL,
m
13 april, tue
tue1300:00+12se337747 0.0 102250
03:00+10se2287100 0.0 102233
06:00+10ese228978 0.0 102219
09:00+14ese4669100 0.0 1022348
12:00+14se5859100 0.0 1021371
15:00+15sse5962100 0.0 1020581
18:00+14se6106798 0.0 1019667
21:00+12sw367999 0.0 1021280
14 april, wed
wed1400:00+10s368855 0.1 1021165
03:00+8s228983 0.1 102129
06:00+8sse128753 0.0 102012
09:00+11se237097 0.0 1020438
12:00+14sse2362100 0.0 1018899
15:00+16ese2355100 0.1 10161265
18:00+13s3571100 1.4 1016308
21:00+11ne2282100 3.0 101644
15 april, thu
thu1500:00+11sse1183100 0.1 101524
03:00+9ne1186100 0.5 101412
06:00+9ssw2286100 0.1 101421
09:00+12ssw346839 0.1 1014545
12:00+15s5654100 0.2 10131437
15:00+15ssw665594 0.3 10131578
18:00+14s356172 0.3 1013918
21:00+10sse358997 2.0 1013310
16 april, fri
fri1600:00+8sse369398 0.5 1013146
03:00+7se369381 0.6 1013165
06:00+7sse4793100 0.2 1014255
09:00+8s468389 0.3 1015581
12:00+9sse6771100 0.1 1016985
15:00+10sse676199 0.1 10161310
18:00+9sse476887 0.0 1017941
21:00+8sse377482 0.0 1017290
17 april, sat
sat1700:00+6s33855 0.0 101846
03:00+5sw22905 0.0 101930
06:00+3wsw22875 0.0 102121
09:00+10w236374 0.0 1018522
12:00+13w4446100 0.0 10181752
15:00+14wsw3341100 0.1 10181944
18:00+13wnw124797 0.0 1019659
21:00+8nw227293 0.1 102137